Change the Weather History Date:

Sunday, June 9, 2013

  Actual Average (KLJF) Record (KLJF)
Temperature  
Mean Temperature 58 °F -  
Max Temperature 61 °F 78 °F 95 °F (1956)
Min Temperature 55 °F 53 °F 41 °F (1988)
Degree Days  
Heating Degree Days 7    
Growing Degree Days 8 (Base 50)    
Moisture  
Dew Point 55 °F    
Average Humidity 91    
Maximum Humidity 97    
Minimum Humidity 67    
Precipitation  
Precipitation 0.71 in - - ()
Sea Level Pressure  
Sea Level Pressure 29.82 in    
Wind  
Wind Speed 11 mph (ENE)    
Max Wind Speed 17 mph    
Max Gust Speed 25 mph    
Visibility 6 miles    
Events Rain    
Averages and records for this station are not official NWS values.
T = Trace of Precipitation, MM = Missing Value Source: NWS Daily Summary

Daily Weather History Graph

Daily Weather History Graph

Search for Another Location

Airport or City:

Trip Planner

Search our weather history database for the weather conditions in past years. The results will help you decide how hot, cold, wet, or windy it might be!

Date:

Astronomy

Jun. 09, 2013 Rise Set
Actual Time 5:30 AM CDT 9:06 PM CDT
Civil Twilight 4:53 AM CDT 9:43 PM CDT
Nautical Twilight 4:03 AM CDT 10:33 PM CDT
Astronomical Twilight 2:57 AM CDT 11:39 PM CDT
Moon 6:31 AM CDT (6/9) 9:49 PM CDT (6/9)
Length of Visible Light 16h 50m
Length of Day
15h 35m
New Moon, 1% of the Moon is Illuminated
Jun 9
New Moon
Jun 16
First Quarter
Jun 23
Full
Jun 29
Last Quarter
Jul 8
New

Hourly Weather History & Observations

Time (CDT) Temp. Dew Point Humidity Pressure Visibility Wind Dir Wind Speed Gust Speed Precip Events Conditions
12:13 AM 61.9 °F 50.9 °F 67% 29.88 in 10.0 mi East 10.4 mph - N/A   Overcast
12:33 AM 61.7 °F 51.3 °F 69% 29.88 in 10.0 mi East 10.4 mph - N/A   Overcast
12:52 AM 61.7 °F 51.8 °F 70% 29.88 in 10.0 mi East 10.4 mph - N/A   Overcast
1:13 AM 61.9 °F 52.3 °F 71% 29.88 in 10.0 mi East 9.2 mph - N/A   Overcast
1:33 AM 61.7 °F 52.7 °F 72% 29.87 in 10.0 mi East 11.5 mph - N/A   Overcast
1:53 AM 61.7 °F 53.1 °F 73% 29.86 in 10.0 mi East 10.4 mph 18.4 mph N/A   Overcast
2:13 AM 60.3 °F 53.6 °F 79% 29.86 in 10.0 mi ESE 12.7 mph 17.3 mph N/A Rain Rain
2:33 AM 59.0 °F 54.3 °F 84% 29.86 in 10.0 mi ESE 9.2 mph - N/A Rain Rain
2:53 AM 58.3 °F 55.2 °F 90% 29.85 in 7.0 mi East 11.5 mph - 0.01 in Rain Rain
3:13 AM 58.1 °F 55.4 °F 91% 29.84 in 7.0 mi East 12.7 mph - 0.02 in Rain Light Rain
3:33 AM 57.7 °F 55.4 °F 92% 29.84 in 7.0 mi East 12.7 mph 18.4 mph 0.05 in Rain Light Rain
3:53 AM 57.6 °F 55.6 °F 93% 29.83 in 7.0 mi East 12.7 mph 17.3 mph 0.06 in Rain Light Rain
4:13 AM 57.6 °F 55.6 °F 93% 29.82 in 7.0 mi East 12.7 mph 16.1 mph 0.01 in Rain Light Rain
4:33 AM 57.2 °F 55.4 °F 94% 29.82 in 7.0 mi East 11.5 mph 17.3 mph 0.03 in Rain Light Rain
4:53 AM 57.2 °F 55.4 °F 94% 29.81 in 7.0 mi East 12.7 mph - 0.06 in Rain Light Rain
5:13 AM 57.0 °F 55.4 °F 94% 29.80 in 5.0 mi ENE 11.5 mph 17.3 mph N/A Rain Light Rain
5:33 AM 56.7 °F 55.4 °F 96% 29.80 in 7.0 mi East 12.7 mph 19.6 mph 0.02 in Rain Light Rain
5:53 AM 56.5 °F 54.9 °F 94% 29.79 in 5.0 mi East 13.8 mph 23.0 mph 0.05 in Rain Light Rain
6:13 AM 56.3 °F 54.7 °F 94% 29.79 in 5.0 mi East 17.3 mph - 0.01 in Rain Light Rain
6:33 AM 56.3 °F 54.5 °F 94% 29.79 in 5.0 mi East 13.8 mph 25.3 mph 0.04 in Rain Light Rain
6:53 AM 55.9 °F 54.5 °F 95% 29.79 in 3.0 mi East 13.8 mph 21.9 mph 0.10 in Rain Rain
7:13 AM 55.9 °F 54.5 °F 95% 29.79 in 3.0 mi East 15.0 mph 21.9 mph 0.04 in Rain Rain
7:33 AM 55.9 °F 54.7 °F 96% 29.78 in 2.5 mi East 13.8 mph 23.0 mph 0.13 in Rain Rain
7:53 AM 55.9 °F 54.7 °F 96% 29.78 in 2.0 mi East 16.1 mph 23.0 mph 0.22 in Rain Rain
8:13 AM 55.9 °F 54.7 °F 96% 29.78 in 3.0 mi East 15.0 mph 24.2 mph 0.05 in Rain Rain
8:33 AM 55.8 °F 54.5 °F 96% 29.78 in 2.5 mi East 16.1 mph 19.6 mph 0.12 in Rain Rain
8:53 AM 55.9 °F 54.7 °F 96% 29.78 in 1.8 mi East 15.0 mph 24.2 mph 0.18 in Rain Rain
9:13 AM 55.9 °F 54.7 °F 96% 29.78 in 1.8 mi East 15.0 mph 23.0 mph 0.03 in Rain Light Rain
9:33 AM 55.9 °F 54.7 °F 96% 29.78 in 5.0 mi East 10.4 mph 20.7 mph 0.03 in Rain Light Rain
9:53 AM 56.3 °F 54.9 °F 95% 29.78 in 5.0 mi East 15.0 mph 19.6 mph 0.03 in   Overcast
10:13 AM 56.3 °F 54.5 °F 94% 29.78 in 5.0 mi East 12.7 mph 21.9 mph N/A   Overcast
10:33 AM 56.3 °F 54.7 °F 94% 29.78 in 7.0 mi East 10.4 mph 19.6 mph N/A   Overcast
10:53 AM 56.5 °F 54.9 °F 94% 29.78 in 3.0 mi East 13.8 mph 18.4 mph N/A   Overcast
11:13 AM 56.7 °F 54.7 °F 93% 29.79 in 5.0 mi East 8.1 mph 19.6 mph N/A   Overcast
11:33 AM 56.7 °F 54.7 °F 93% 29.79 in 2.0 mi East 13.8 mph 19.6 mph N/A Rain Rain
11:53 AM 56.5 °F 54.7 °F 94% 29.79 in 3.0 mi East 9.2 mph - N/A Rain Light Rain
12:13 PM 56.5 °F 54.9 °F 94% 29.79 in 3.0 mi East 11.5 mph - N/A   Overcast
12:32 PM 57.2 °F 55.4 °F 94% 29.79 in 7.0 mi East 10.4 mph - N/A   Overcast
12:53 PM 58.1 °F 55.6 °F 91% 29.79 in 10.0 mi East 13.8 mph 19.6 mph N/A   Overcast
1:13 PM 58.5 °F 55.2 °F 89% 29.80 in 10.0 mi East 12.7 mph 21.9 mph N/A   Overcast
1:32 PM 58.5 °F 55.0 °F 88% 29.80 in 10.0 mi East 12.7 mph 17.3 mph N/A   Overcast
1:53 PM 59.0 °F 55.0 °F 87% 29.80 in 10.0 mi East 10.4 mph 17.3 mph N/A   Overcast
2:13 PM 58.3 °F 54.5 °F 87% 29.80 in 10.0 mi East 11.5 mph 16.1 mph N/A   Overcast
2:33 PM 58.1 °F 54.5 °F 88% 29.80 in 10.0 mi ENE 8.1 mph - N/A   Overcast
2:53 PM 58.1 °F 54.5 °F 88% 29.81 in 10.0 mi East 9.2 mph - N/A   Overcast
3:13 PM 58.1 °F 54.3 °F 87% 29.80 in 10.0 mi East 9.2 mph - N/A   Overcast
3:33 PM 58.3 °F 54.5 °F 87% 29.80 in 10.0 mi ENE 8.1 mph - N/A   Overcast
3:53 PM 58.5 °F 54.5 °F 87% 29.80 in 10.0 mi ENE 8.1 mph - N/A   Overcast
4:13 PM 59.0 °F 54.9 °F 86% 29.80 in 10.0 mi East 9.2 mph - N/A   Overcast
4:33 PM 58.8 °F 54.9 °F 87% 29.80 in 10.0 mi East 10.4 mph - N/A   Overcast
4:52 PM 58.6 °F 55.0 °F 88% 29.81 in 10.0 mi ENE 10.4 mph - N/A   Overcast
5:13 PM 58.5 °F 55.2 °F 89% 29.81 in 10.0 mi ENE 6.9 mph - N/A   Overcast
5:33 PM 58.3 °F 55.4 °F 90% 29.81 in 10.0 mi ENE 6.9 mph - N/A   Overcast
5:52 PM 58.1 °F 55.4 °F 91% 29.82 in 7.0 mi ENE 3.5 mph - N/A   Overcast
6:13 PM 58.1 °F 55.4 °F 91% 29.82 in 5.0 mi ENE 6.9 mph - N/A   Overcast
6:33 PM 58.6 °F 55.9 °F 91% 29.81 in 4.0 mi ENE 9.2 mph - N/A   Overcast
6:52 PM 58.5 °F 56.3 °F 93% 29.81 in 4.0 mi ENE 6.9 mph - N/A   Overcast
7:13 PM 58.3 °F 55.9 °F 92% 29.82 in 5.0 mi ENE 3.5 mph - N/A   Overcast
7:33 PM 58.5 °F 56.3 °F 93% 29.82 in 5.0 mi NNE 4.6 mph - N/A   Overcast
7:53 PM 58.3 °F 56.3 °F 93% 29.82 in 5.0 mi NNE 4.6 mph - N/A   Overcast
8:13 PM 58.1 °F 56.3 °F 94% 29.83 in 4.0 mi NE 3.5 mph - N/A   Overcast
8:33 PM 58.1 °F 56.3 °F 94% 29.83 in 3.0 mi NNE 3.5 mph - N/A   Overcast
8:53 PM 57.6 °F 56.3 °F 96% 29.83 in 3.0 mi NNE 3.5 mph - N/A   Overcast
9:13 PM 57.4 °F 56.3 °F 96% 29.84 in 3.0 mi NNE 5.8 mph - N/A   Overcast
9:33 PM 57.4 °F 56.3 °F 96% 29.84 in 4.0 mi North 4.6 mph - N/A   Overcast
9:52 PM 57.4 °F 56.5 °F 97% 29.85 in 4.0 mi NW 4.6 mph - N/A   Overcast
10:13 PM 57.4 °F 56.3 °F 96% 29.85 in 4.0 mi North 3.5 mph - N/A   Overcast
10:33 PM 57.4 °F 56.3 °F 96% 29.85 in 4.0 mi NNE 4.6 mph - N/A   Overcast
10:53 PM 57.4 °F 56.3 °F 96% 29.85 in 4.0 mi NNE 3.5 mph - N/A   Overcast
11:13 PM 57.4 °F 56.3 °F 96% 29.85 in 3.0 mi NE 4.6 mph - N/A   Overcast
11:33 PM 57.4 °F 56.3 °F 96% 29.85 in 3.0 mi NE 3.5 mph - N/A   Overcast
11:53 PM 57.4 °F 56.5 °F 97% 29.85 in 4.0 mi ENE 3.5 mph - N/A   Overcast